Westerly, RI

4:38 PM EDT on June 25, 2017 (GMT -0400)
Westerly State

Weather History for KWST - January, 2013

Change the Weather History Date:

Wednesday, January 9, 2013

  Actual Average (KGON) Record (KGON)
Temperature  
Mean Temperature 34 °F -  
Max Temperature 46 °F 34 °F 57 °F (1965)
Min Temperature 24 °F 16 °F -8 °F (1968)
Degree Days  
Heating Degree Days 30    
Moisture  
Dew Point 30 °F    
Average Humidity 94    
Maximum Humidity 100    
Minimum Humidity 66    
Precipitation  
Precipitation 0.00 in - - ()
Sea Level Pressure  
Sea Level Pressure 30.32 in    
Wind  
Wind Speed 1 mph (WSW)    
Max Wind Speed 14 mph    
Max Gust Speed 22 mph    
Visibility 4 miles    
Events Fog    
Averages and records for this station are not official NWS values.
T = Trace of Precipitation, MM = Missing Value Source: NWS Daily Summary

Daily Weather History Graph

Daily Weather History Graph

Search for Another Location

Airport or City:

Trip Planner

Search our weather history database for the weather conditions in past years. The results will help you decide how hot, cold, wet, or windy it might be!

Date:

Astronomy

Jan. 09, 2013 Rise Set
Actual Time 7:12 AM EST 4:36 PM EST
Civil Twilight 6:41 AM EST 5:07 PM EST
Nautical Twilight 6:07 AM EST 5:41 PM EST
Astronomical Twilight 5:34 AM EST 6:15 PM EST
Moon 4:48 AM EST (1/9) 2:34 PM EST (1/9)
Length of Visible Light 10h 25m
Length of Day
9h 23m
Waning Crescent, 6% of the Moon is Illuminated
Jan 9
Waning Crescent
Jan 11
New
Jan 18
First Quarter
Jan 26
Full
Feb 3
Last Quarter

Hourly Weather History & Observations

Time (EST) Temp. Windchill Dew Point Humidity Pressure Visibility Wind Dir Wind Speed Gust Speed Precip Events Conditions
12:37 AM 28.4 °F - 28.4 °F 100% 30.37 in 2.0 mi Calm Calm - N/A   Partly Cloudy
12:39 AM 28.4 °F - 28.4 °F 100% 30.37 in 1.0 mi Calm Calm - N/A   Mist
12:43 AM 28.4 °F - 28.4 °F 100% 30.37 in 0.2 mi Calm Calm - N/A Fog Light Freezing Fog
12:50 AM 28.4 °F - 28.4 °F 100% 30.37 in 0.2 mi Calm Calm - N/A Fog Light Freezing Fog
12:53 AM 28.0 °F - 28.0 °F 100% 30.37 in 0.5 mi Calm Calm - N/A Fog Light Freezing Fog
12:57 AM 28.4 °F - 28.4 °F 100% 30.37 in 2.5 mi Calm Calm - N/A   Mostly Cloudy
1:03 AM 26.6 °F - 26.6 °F 100% 30.37 in 5.0 mi Calm Calm - N/A   Scattered Clouds
1:53 AM 27.0 °F - 27.0 °F 100% 30.38 in 5.0 mi Calm Calm - N/A   Scattered Clouds
2:01 AM 26.6 °F - 26.6 °F 100% 30.38 in 6.0 mi Calm Calm - N/A   Mostly Cloudy
2:25 AM 26.6 °F - 26.6 °F 100% 30.39 in 1.8 mi Calm Calm - N/A   Overcast
2:34 AM 26.6 °F - 26.6 °F 100% 30.39 in 1.2 mi Calm Calm - N/A   Overcast
2:45 AM 26.6 °F - 26.6 °F 100% 30.38 in 0.5 mi Calm Calm - N/A Fog Light Freezing Fog
2:50 AM 26.6 °F - 26.6 °F 100% 30.38 in 1.2 mi Calm Calm - N/A   Mostly Cloudy
2:53 AM 26.1 °F - 26.1 °F 100% 30.39 in 3.0 mi Calm Calm - N/A   Mostly Cloudy
3:01 AM 26.6 °F - 24.8 °F 93% 30.39 in 1.8 mi Calm Calm - N/A   Mostly Cloudy
3:13 AM 24.8 °F - 24.8 °F 100% 30.39 in 0.5 mi Calm Calm - N/A Fog Light Freezing Fog
3:27 AM 24.8 °F - 24.8 °F 100% 30.39 in 1.5 mi Calm Calm - N/A   Scattered Clouds
3:30 AM 24.8 °F - 24.8 °F 100% 30.39 in 3.0 mi Calm Calm - N/A   Scattered Clouds
3:43 AM 24.8 °F - 24.8 °F 100% 30.39 in 2.0 mi Calm Calm - N/A   Partly Cloudy
3:53 AM 25.0 °F - 25.0 °F 100% 30.39 in 4.0 mi Calm Calm - N/A   Partly Cloudy
4:06 AM 24.8 °F - 24.8 °F 100% 30.38 in 2.5 mi Calm Calm - N/A   Mostly Cloudy
4:14 AM 24.8 °F - 24.8 °F 100% 30.38 in 3.0 mi Calm Calm - N/A   Scattered Clouds
4:29 AM 24.8 °F - 24.8 °F 100% 30.37 in 3.0 mi Calm Calm - N/A   Mostly Cloudy
4:36 AM 24.8 °F - 24.8 °F 100% 30.37 in 3.0 mi Calm Calm - N/A   Partly Cloudy
4:42 AM 24.8 °F 20.5 °F 24.8 °F 100% 30.37 in 2.0 mi North 3.5 mph - N/A   Mostly Cloudy
4:49 AM 24.8 °F 20.5 °F 24.8 °F 100% 30.37 in 1.0 mi NNE 3.5 mph - N/A   Mist
4:53 AM 25.0 °F - 24.1 °F 96% 30.37 in 1.2 mi Calm Calm - N/A   Mostly Cloudy
5:02 AM 24.8 °F 20.5 °F 24.8 °F 100% 30.36 in 3.0 mi North 3.5 mph - N/A   Mostly Cloudy
5:09 AM 24.8 °F - 24.8 °F 100% 30.36 in 3.0 mi Calm Calm - N/A   Scattered Clouds
5:53 AM 24.1 °F - 23.0 °F 96% 30.38 in 4.0 mi Calm Calm - N/A   Clear
6:53 AM 24.1 °F 19.7 °F 24.1 °F 100% 30.39 in 5.0 mi North 3.5 mph - N/A   Scattered Clouds
7:53 AM 26.1 °F - 25.0 °F 96% 30.40 in 3.0 mi Calm Calm - N/A   Mostly Cloudy
8:53 AM 30.0 °F - 28.9 °F 96% 30.40 in 3.0 mi Calm Calm - N/A   Clear
9:53 AM 36.0 °F - 34.0 °F 93% 30.39 in 3.0 mi Calm Calm - N/A   Clear
10:53 AM 42.1 °F 40.2 °F 37.9 °F 85% 30.36 in 5.0 mi South 3.5 mph - N/A   Clear
11:53 AM 41.0 °F 39.0 °F 39.0 °F 93% 30.31 in 5.0 mi Variable 3.5 mph - N/A   Clear
12:53 PM 42.1 °F 38.4 °F 36.0 °F 79% 30.24 in 6.0 mi South 5.8 mph - N/A   Haze
1:53 PM 44.1 °F 41.5 °F 37.0 °F 76% 30.24 in 6.0 mi SW 4.6 mph - N/A   Haze
2:53 PM 44.1 °F 40.8 °F 37.9 °F 79% 30.20 in 6.0 mi SSW 5.8 mph - N/A   Haze
3:53 PM 43.0 °F 39.5 °F 37.0 °F 80% 30.17 in 6.0 mi SW 5.8 mph - N/A   Haze
4:53 PM 45.0 °F 38.5 °F 39.9 °F 82% 30.11 in 9.0 mi SW 13.8 mph 21.9 mph N/A   Mostly Cloudy
5:53 PM 44.1 °F 39.0 °F 41.0 °F 89% 30.11 in 10.0 mi SW 9.2 mph - N/A   Scattered Clouds
6:53 PM 44.1 °F 38.6 °F 39.9 °F 85% 30.11 in 10.0 mi West 10.4 mph 18.4 mph N/A   Partly Cloudy
7:53 PM 44.1 °F 39.5 °F 41.0 °F 89% 30.11 in 9.0 mi WSW 8.1 mph - N/A   Clear
8:53 PM 45.0 °F 38.9 °F 41.0 °F 86% 30.11 in 10.0 mi West 12.7 mph 20.7 mph N/A   Clear
9:53 PM 45.0 °F 39.3 °F 37.9 °F 76% 30.12 in 10.0 mi West 11.5 mph 16.1 mph N/A   Clear
10:53 PM 45.0 °F 39.7 °F 35.1 °F 68% 30.12 in 10.0 mi WSW 10.4 mph 17.3 mph N/A   Clear
11:53 PM 46.0 °F 41.4 °F 35.1 °F 66% 30.14 in 10.0 mi West 9.2 mph 16.1 mph N/A   Clear